This is the latest recevied weather packets stored in our database for station/object DJ2DS-13. If no packets are shown the sender has not sent any weather packets the latest 10 day(s).
| Time | Temp. | Humidity | Pressure | Rain* | Wind** | Luminosity | Snow |
|---|---|---|---|---|---|---|---|
| 1777618587 | 13.89° C | 61% | 1027.4 hPa | 0 mm | - | 343 W/m² | - |
| 1777618288 | 13.89° C | 60% | 1027.5 hPa | 0 mm | - | 329 W/m² | - |
| 1777617987 | 13.89° C | 64% | 1027.5 hPa | 0 mm | - | 317 W/m² | - |
| 1777617687 | 13.33° C | 64% | 1027.5 hPa | 0 mm | - | 306 W/m² | - |
| 1777617388 | 13.33° C | 64% | 1027.4 hPa | 0 mm | - | 294 W/m² | - |
| 1777617087 | 12.78° C | 65% | 1027.4 hPa | 0 mm | - | 280 W/m² | - |
| 1777616788 | 12.78° C | 66% | 1027.5 hPa | 0 mm | - | 267 W/m² | - |
| 1777616487 | 12.22° C | 66% | 1027.4 hPa | 0 mm | - | 257 W/m² | - |
| 1777616187 | 12.22° C | 66% | 1027.5 hPa | 0 mm | - | 232 W/m² | - |
| 1777615888 | 11.67° C | 67% | 1027.4 hPa | 0 mm | - | 186 W/m² | - |
| 1777615587 | 11.11° C | 71% | 1027.5 hPa | 0 mm | - | 186 W/m² | - |
| 1777615287 | 10.56° C | 73% | 1027.5 hPa | 0 mm | - | 208 W/m² | - |
| 1777614987 | 10.56° C | 75% | 1027.5 hPa | 0 mm | - | 197 W/m² | - |
| 1777614687 | 10° C | 77% | 1027.5 hPa | 0 mm | - | 185 W/m² | - |
| 1777614387 | 8.89° C | 80% | 1027.4 hPa | 0 mm | - | 174 W/m² | - |
| 1777614089 | 8.33° C | 83% | 1027.5 hPa | 0 mm | - | 162 W/m² | - |
| 1777613787 | 7.78° C | 85% | 1027.5 hPa | 0 mm | - | 150 W/m² | - |
| 1777613188 | 6.67° C | 88% | 1027.3 hPa | 0 mm | - | 120 W/m² | - |
| 1777612887 | 6.67° C | 88% | 1027.3 hPa | 0 mm | - | 35 W/m² | - |
| 1777612588 | 6.11° C | 88% | 1027.2 hPa | 0 mm | - | 28 W/m² | - |
| 1777612287 | 5.56° C | 89% | 1027.3 hPa | 0 mm | - | 23 W/m² | - |
| 1777611987 | 5.56° C | 88% | 1027.3 hPa | 0 mm | - | 21 W/m² | - |
| 1777611686 | 5° C | 88% | 1027.2 hPa | 0 mm | - | 21 W/m² | - |
| 1777611387 | 5° C | 87% | 1027.4 hPa | 0 mm | - | 19 W/m² | - |
| 1777611086 | 5° C | 87% | 1027.3 hPa | 0 mm | - | 19 W/m² | - |
* Rain latest hour (hover to see other rain measurements)
** Current wind speed in m/s (hover to see current wind gust speed)